When you browse on this site, cookies collect data to enhance your experience and personalize the content and advertising you see.
Visit our Privacy Policy to learn more. By continuing to use the site, you agree to this use of cookies and data.
  • In Deutschland
  • Länderverzeichnis
  • Für 7 Tage
  • Wassertemperatur
  • Wetterkarte
  • Widgets
  • user-avatar
    Anmelden

    Stündliche Wetter München

    Heute, 20 August, Dienstag

    Zeit Temperatur Niederschläge Wind Luftdruck Luftfeuchtigkeit
    00:00 +19°C° 0.3 mm 1 m/S 719 mmHg 92%
    01:00 +18°C° 0.3 mm 1 m/S 719 mmHg 93%
    02:00 +18°C° 0.4 mm 1 m/S 719 mmHg 94%
    03:00 +18°C° 0.4 mm 1 m/S 719 mmHg 94%
    04:00 +17°C° 0.4 mm 2 m/S 719 mmHg 95%
    05:00 +18°C° 0.6 mm 1 m/S 719 mmHg 96%
    06:00 +18°C° 0.6 mm 1 m/S 719 mmHg 96%
    07:00 +18°C° 0.6 mm 1 m/S 719 mmHg 97%
    08:00 +18°C° 2 mm 1 m/S 719 mmHg 97%
    09:00 +17°C° 2 mm 2 m/S 719 mmHg 97%
    10:00 +17°C° 2 mm 2 m/S 719 mmHg 98%
    11:00 +17°C° 3 mm 2 m/S 719 mmHg 98%
    12:00 +16°C° 3 mm 3 m/S 719 mmHg 97%
    13:00 +16°C° 3 mm 3 m/S 719 mmHg 97%
    14:00 +16°C° 0.5 mm 3 m/S 719 mmHg 97%
    15:00 +14°C° 0.5 mm 4 m/S 719 mmHg 96%
    16:00 +14°C° 0.5 mm 4 m/S 719 mmHg 95%
    17:00 +14°C° 1.6 mm 4 m/S 720 mmHg 95%
    18:00 +13°C° 1.6 mm 4 m/S 720 mmHg 95%
    19:00 +13°C° 1.6 mm 4 m/S 721 mmHg 95%
    20:00 +13°C° 0.9 mm 3 m/S 721 mmHg 95%
    21:00 +13°C° 0.9 mm 2 m/S 722 mmHg 96%
    22:00 +13°C° 0.9 mm 1 m/S 722 mmHg 96%
    23:00 +13°C° 1.5 mm 2 m/S 723 mmHg 96%

    Morgen, 21 August, Mittwoch

    Zeit Temperatur Niederschläge Wind Luftdruck Luftfeuchtigkeit
    00:00 +13°C° 1.5 mm 2 m/S 723 mmHg 96%
    01:00 +13°C° 1.5 mm 2 m/S 723 mmHg 96%
    02:00 +13°C° 1.3 mm 2 m/S 723 mmHg 96%
    03:00 +13°C° 1.3 mm 1 m/S 723 mmHg 96%
    04:00 +12°C° 1.3 mm 1 m/S 723 mmHg 96%
    05:00 +12°C° 0.6 mm 1 m/S 724 mmHg 96%
    06:00 +12°C° 0.6 mm 1 m/S 724 mmHg 95%
    07:00 +13°C° 0.6 mm 1 m/S 724 mmHg 95%
    08:00 +14°C° 0 mm 2 m/S 724 mmHg 90%
    09:00 +15°C° 0 mm 2 m/S 724 mmHg 85%
    10:00 +16°C° 0 mm 3 m/S 724 mmHg 80%
    11:00 +18°C° 0 mm 3 m/S 723 mmHg 76%
    12:00 +19°C° 0 mm 3 m/S 723 mmHg 71%
    13:00 +20°C° 0 mm 4 m/S 723 mmHg 66%
    14:00 +20°C° 0 mm 4 m/S 722 mmHg 66%
    15:00 +20°C° 0 mm 4 m/S 722 mmHg 67%
    16:00 +20°C° 0 mm 4 m/S 722 mmHg 67%
    17:00 +19°C° 0 mm 3 m/S 722 mmHg 72%
    18:00 +18°C° 0 mm 3 m/S 722 mmHg 77%
    19:00 +17°C° 0 mm 3 m/S 722 mmHg 82%
    20:00 +16°C° 0 mm 3 m/S 722 mmHg 85%
    21:00 +16°C° 0 mm 2 m/S 722 mmHg 88%
    22:00 +15°C° 0 mm 2 m/S 722 mmHg 91%
    23:00 +14°C° 0.1 mm 2 m/S 722 mmHg 91%

    übermorgen, 22 August, Donnerstag

    Zeit Temperatur Niederschläge Wind Luftdruck Luftfeuchtigkeit
    00:00 +14°C° 0.1 mm 2 m/S 721 mmHg 91%
    01:00 +14°C° 0.1 mm 2 m/S 721 mmHg 91%
    02:00 +14°C° 0 mm 2 m/S 721 mmHg 92%
    03:00 +13°C° 0 mm 2 m/S 721 mmHg 93%
    04:00 +13°C° 0 mm 2 m/S 721 mmHg 94%
    05:00 +13°C° 0 mm 2 m/S 721 mmHg 93%
    06:00 +13°C° 0 mm 3 m/S 721 mmHg 92%
    07:00 +13°C° 0 mm 3 m/S 722 mmHg 92%
    08:00 +14°C° 0 mm 3 m/S 722 mmHg 88%
    09:00 +17°C° 0 mm 3 m/S 722 mmHg 84%
    10:00 +18°C° 0 mm 3 m/S 722 mmHg 80%
    11:00 +19°C° 0 mm 3 m/S 722 mmHg 76%
    12:00 +21°C° 0 mm 3 m/S 722 mmHg 72%
    13:00 +22°C° 0 mm 3 m/S 722 mmHg 68%
    14:00 +22°C° 0 mm 3 m/S 722 mmHg 68%
    15:00 +22°C° 0 mm 3 m/S 721 mmHg 68%
    16:00 +22°C° 0 mm 3 m/S 721 mmHg 68%
    17:00 +21°C° 0 mm 2 m/S 721 mmHg 73%
    18:00 +20°C° 0 mm 2 m/S 722 mmHg 79%
    19:00 +19°C° 0 mm 1 m/S 722 mmHg 84%
    20:00 +18°C° 0 mm 1 m/S 722 mmHg 85%
    21:00 +16°C° 0 mm 1 m/S 722 mmHg 87%
    22:00 +16°C° 0 mm 1 m/S 723 mmHg 88%
    23:00 +15°C° 0 mm 1 m/S 722 mmHg 89%

    23 August, Freitag

    Zeit Temperatur Niederschläge Wind Luftdruck Luftfeuchtigkeit
    00:00 +15°C° 0 mm 1 m/S 722 mmHg 91%
    01:00 +14°C° 0 mm 1 m/S 722 mmHg 92%
    02:00 +14°C° 0 mm 1 m/S 722 mmHg 93%
    03:00 +14°C° 0 mm 1 m/S 722 mmHg 93%
    04:00 +13°C° 0 mm 1 m/S 722 mmHg 94%
    05:00 +14°C° 0 mm 2 m/S 722 mmHg 93%
    06:00 +14°C° 0 mm 2 m/S 722 mmHg 92%
    07:00 +15°C° 0 mm 2 m/S 722 mmHg 91%
    08:00 +17°C° 0 mm 3 m/S 722 mmHg 84%
    09:00 +19°C° 0 mm 4 m/S 722 mmHg 78%
    10:00 +21°C° 0 mm 4 m/S 722 mmHg 71%
    11:00 +22°C° 0 mm 4 m/S 722 mmHg 69%
    12:00 +22°C° 0 mm 4 m/S 722 mmHg 66%
    13:00 +23°C° 0 mm 5 m/S 721 mmHg 64%
    14:00 +23°C° 0 mm 4 m/S 721 mmHg 64%
    15:00 +23°C° 0 mm 4 m/S 721 mmHg 65%
    16:00 +23°C° 0 mm 4 m/S 721 mmHg 66%
    17:00 +22°C° 0.1 mm 3 m/S 721 mmHg 71%
    18:00 +21°C° 0.1 mm 3 m/S 721 mmHg 76%
    19:00 +19°C° 0.1 mm 2 m/S 720 mmHg 81%
    20:00 +19°C° 0 mm 2 m/S 720 mmHg 83%
    21:00 +18°C° 0 mm 2 m/S 720 mmHg 84%
    22:00 +17°C° 0 mm 2 m/S 721 mmHg 85%
    23:00 +17°C° 0 mm 2 m/S 720 mmHg 87%

    24 August, Samstag

    Zeit Temperatur Niederschläge Wind Luftdruck Luftfeuchtigkeit
    00:00 +16°C° 0 mm 2 m/S 720 mmHg 89%
    01:00 +15°C° 0 mm 2 m/S 720 mmHg 92%
    02:00 +15°C° 0 mm 2 m/S 719 mmHg 92%
    03:00 +15°C° 0 mm 1 m/S 719 mmHg 93%
    04:00 +14°C° 0 mm 1 m/S 719 mmHg 94%
    05:00 +15°C° 0 mm 1 m/S 719 mmHg 93%
    06:00 +16°C° 0 mm 1 m/S 719 mmHg 91%
    07:00 +16°C° 0 mm 1 m/S 719 mmHg 90%
    08:00 +20°C° 0 mm 1 m/S 719 mmHg 83%
    09:00 +20°C° 0 mm 0 m/S 719 mmHg 76%
    10:00 +22°C° 0 mm 0 m/S 719 mmHg 70%
    11:00 +25°C° 0 mm 1 m/S 719 mmHg 67%
    12:00 +26°C° 0 mm 1 m/S 719 mmHg 64%
    13:00 +27°C° 0 mm 1 m/S 719 mmHg 61%
    14:00 +27°C° 0 mm 1 m/S 719 mmHg 63%
    15:00 +27°C° 0 mm 1 m/S 719 mmHg 64%
    16:00 +27°C° 0 mm 2 m/S 719 mmHg 65%
    17:00 +26°C° 0.2 mm 1 m/S 718 mmHg 72%
    18:00 +24°C° 0.2 mm 1 m/S 718 mmHg 79%
    19:00 +20°C° 0.2 mm 0 m/S 718 mmHg 86%
    20:00 +20°C° 0.1 mm 0 m/S 718 mmHg 87%
    21:00 +19°C° 0.1 mm 0 m/S 718 mmHg 88%
    22:00 +20°C° 0.1 mm 1 m/S 719 mmHg 90%
    23:00 +20°C° 0 mm 1 m/S 718 mmHg 90%

    25 August, Sonntag

    Zeit Temperatur Niederschläge Wind Luftdruck Luftfeuchtigkeit
    00:00 +20°C° 0 mm 1 m/S 718 mmHg 90%
    01:00 +19°C° 0 mm 1 m/S 718 mmHg 91%
    02:00 +19°C° 0 mm 1 m/S 718 mmHg 91%
    03:00 +18°C° 0 mm 1 m/S 718 mmHg 91%
    04:00 +18°C° 0 mm 1 m/S 718 mmHg 91%
    05:00 +19°C° 0 mm 1 m/S 718 mmHg 89%
    06:00 +19°C° 0 mm 1 m/S 718 mmHg 88%
    07:00 +20°C° 0 mm 1 m/S 718 mmHg 86%
    08:00 +22°C° 0 mm 1 m/S 718 mmHg 79%
    09:00 +22°C° 0 mm 0 m/S 719 mmHg 72%
    10:00 +24°C° 0 mm 0 m/S 719 mmHg 65%
    11:00 +27°C° 0 mm 1 m/S 718 mmHg 61%
    12:00 +28°C° 0 mm 1 m/S 718 mmHg 57%
    13:00 +29°C° 0 mm 1 m/S 718 mmHg 53%
    14:00 +29°C° 0.1 mm 1 m/S 718 mmHg 55%
    15:00 +29°C° 0.1 mm 1 m/S 718 mmHg 58%
    16:00 +28°C° 0.1 mm 2 m/S 718 mmHg 60%
    17:00 +27°C° 0.7 mm 1 m/S 718 mmHg 66%
    18:00 +25°C° 0.7 mm 1 m/S 717 mmHg 72%
    19:00 +21°C° 0.7 mm 0 m/S 717 mmHg 78%
    20:00 +22°C° 0 mm 1 m/S 717 mmHg 80%
    21:00 +21°C° 0 mm 1 m/S 718 mmHg 82%
    22:00 +20°C° 0 mm 1 m/S 718 mmHg 84%
    23:00 +20°C° 0 mm 1 m/S 718 mmHg 85%
    Mehr zeigen